Wind_Speed
3 6 8 5 3 4 4 5 9 7 3 7 10 11 10 9 9 9 7 5 4 3 4 4 6 8 9 11 13 15 17 18 20 19 20 19 19 20 16 19 19 18 19 19
5 9 7 2 6 7 6 8 10 8 7 5 11 12 6 10 8 7 7 6 4 2 2 5 7 9 11 12 14 17 17 18 19 18 20 19 20 20 21 20 19 21 20 21
11 1 2 4 7 9 10 11 7 8 6 13 10 18 14 8 7 8 7 4 4 1 2 4 7 9 10 13 14 16 17 18 18 21 20 21 22 20 20 20 22 21 23 24
8 6 11 11 12 9 11 7 9 9 6 6 3 7 6 12 9 11 10 9 6 3 0 4 7 9 11 13 14 16 16 17 17 19 20 20 21 22 23 24 24 27 25 25
3 5 8 11 13 10 4 4 5 5 8 8 13 7 4 8 10 10 12 11 8 4 1 4 6 9 10 12 14 14 15 16 18 19 19 21 20 21 23 22 24 25 24 23
14 2 5 3 4 10 10 6 5 5 8 9 13 11 8 5 2 5 6 9 7 4 1 3 4 6 9 11 13 14 16 16 18 20 21 20 21 23 24 24 24 22 24 23
16 16 10 6 9 6 10 6 4 6 6 8 4 7 13 7 5 2 3 8 8 5 1 2 5 7 9 11 12 13 15 16 18 19 20 19 20 21 22 23 23 25 23 22
11 7 19 16 19 8 13 12 6 7 7 9 8 7 2 5 3 3 2 5 6 4 1 3 5 7 9 10 12 13 14 15 17 19 19 18 19 19 19 20 21 19 20 21
8 5 8 6 7 13 6 7 4 8 10 9 10 14 9 5 6 6 7 7 8 5 3 2 4 6 7 9 10 12 14 14 15 17 18 18 18 19 19 19 18 19 19 22
5 5 5 5 7 4 6 10 4 4 5 11 8 14 13 5 2 8 9 11 10 7 4 2 2 4 5 7 8 10 12 13 14 16 17 17 18 18 17 17 21 22 22 24
7 4 6 6 9 12 6 6 5 4 7 9 12 9 2 4 6 5 7 10 10 10 6 4 2 2 4 6 8 10 12 13 15 15 15 16 18 18 19 21 22 23 23 26
5 3 6 10 4 3 5 10 11 7 10 8 9 14 3 3 5 6 8 6 9 9 7 5 4 1 2 5 7 8 10 12 13 13 14 15 16 19 20 21 23 24 25 28
8 5 6 5 4 5 7 9 10 7 6 17 13 11 4 3 7 9 10 8 10 10 8 7 6 3 2 4 5 6 9 11 12 12 13 14 17 18 19 20 22 25 27 28
4 3 4 11 3 2 5 11 12 13 10 15 16 15 21 18 19 16 9 10 10 10 9 7 6 5 3 3 2 5 8 9 10 11 13 14 16 16 17 18 20 24 25 28
2 7 4 7 8 9 14 13 13 14 19 15 21 23 19 19 19 16 9 10 11 11 10 9 7 6 5 3 2 5 6 8 9 10 12 14 13 14 16 18 20 22 25 27
4 6 1 2 6 7 11 15 16 14 19 19 21 30 19 14 4 4 4 11 13 12 11 10 10 9 6 4 4 5 6 7 7 11 12 12 13 15 17 18 20 22 24 27
7 6 4 8 4 5 12 15 17 18 19 17 18 20 13 10 10 8 6 11 13 14 13 12 10 9 7 6 6 6 5 5 6 11 11 12 13 15 17 18 19 22 23 25
6 4 4 3 4 6 1 2 5 13 14 15 20 18 16 11 4 6 5 10 13 14 14 12 13 12 9 7 7 7 6 6 7 10 10 11 13 14 15 17 19 19 21 24
7 9 5 5 9 13 15 14 9 9 14 12 15 15 1 1 5 7 6 9 11 12 15 13 14 13 11 9 8 8 7 7 7 9 10 10 11 13 14 17 18 17 19 22
6 11 9 6 6 10 3 6 5 3 10 3 4 4 7 7 5 2 11 11 13 14 16 17 15 13 12 9 9 9 8 9 9 8 8 10 10 12 13 14 16 16 17 20
6 6 14 12 7 9 5 8 8 2 3 6 6 5 10 7 2 4 13 12 16 17 18 16 15 13 12 11 11 11 10 9 8 8 9 10 10 12 13 13 14 15 16 17
11 9 7 9 7 12 11 12 7 2 4 5 7 8 7 5 6 10 11 13 18 19 18 15 15 13 12 11 12 12 10 10 9 10 11 11 10 10 11 14 15 14 13 15
9 9 7 8 8 3 16 8 13 4 6 7 8 8 9 9 10 13 13 15 18 20 18 16 15 15 12 10 10 12 11 9 8 9 11 11 10 11 12 12 13 13 14 14
9 9 6 5 8 13 11 14 8 10 11 6 6 8 13 12 12 14 14 15 19 20 19 18 16 14 13 11 10 11 12 11 10 10 9 8 9 10 10 13 14 15 14 15
7 9 9 14 10 11 11 13 13 12 10 7 6 9 12 12 14 15 15 16 20 21 21 20 19 16 15 14 12 12 12 11 10 9 9 8 8 9 12 14 14 14 17 17
7 8 9 9 9 10 7 3 3 9 11 11 9 9 10 13 14 17 15 21 22 22 22 21 19 18 17 16 15 13 12 11 10 9 7 6 7 7 7 9 12 14 14 14
Wind_Direction
166 254 254 344 265 279 254 251 258 272 280 299 265 262 262 181 193 190 188 181 160 117 93 47 26 18 11 9 5 1 354 352 350 344 338 332 324 319 311 309 307 307 307 306
202 251 327 247 205 216 234 255 262 269 283 257 276 276 263 194 212 212 203 196 179 162 72 32 18 14 11 6 3 359 355 351 349 343 332 325 318 312 307 306 305 305 304 304
258 286 131 192 201 216 224 243 262 270 303 263 288 270 228 202 213 206 209 197 188 204 359 21 13 11 6 5 359 356 354 349 346 342 335 330 323 316 314 313 309 307 306 302
265 277 238 236 241 236 253 223 245 265 274 280 23 292 227 168 204 211 205 208 200 197 72 12 6 7 5 2 356 353 352 350 348 345 339 333 324 318 318 314 312 311 306 303
132 177 203 229 242 212 260 198 213 239 256 290 253 260 97 158 212 219 212 206 198 185 12 12 8 4 4 360 359 357 355 354 351 347 342 334 327 321 317 315 313 311 309 307
254 131 223 256 172 196 137 155 198 234 261 255 261 223 296 153 191 139 169 191 184 182 127 31 14 4 10 5 3 2 358 355 352 349 345 338 332 328 325 324 320 318 314 314
222 224 214 187 163 193 211 213 248 229 200 261 72 271 262 314 184 308 222 184 184 174 113 21 13 11 8 7 3 359 355 351 352 351 349 343 336 331 327 327 325 324 323 320
198 191 201 206 223 234 219 233 240 262 270 278 158 259 329 82 114 171 206 178 169 187 142 30 18 11 7 3 0 355 351 350 355 355 353 349 345 339 334 334 332 328 326 327
183 151 154 180 197 201 166 215 299 264 264 268 252 265 221 152 199 209 210 200 204 192 175 60 20 15 3 1 359 354 351 353 358 358 359 357 353 351 347 346 344 343 342 341
192 141 184 136 153 156 248 140 173 207 253 262 265 288 297 200 246 229 226 220 213 191 177 111 46 17 2 1 359 358 358 356 360 2 6 1 359 359 359 0 1 360 356 356
176 237 145 161 209 184 169 206 225 276 261 271 283 275 114 174 283 271 253 221 207 193 172 139 76 24 8 8 10 5 3 4 7 4 7 7 4 5 8 11 9 8 9 7
168 189 185 202 87 316 283 249 216 235 241 238 280 269 251 213 245 256 272 213 183 179 164 148 138 104 23 27 17 8 8 14 11 6 12 12 8 12 13 13 12 14 14 16
167 187 193 188 186 199 231 218 238 267 283 258 265 270 147 217 266 279 284 196 177 174 167 152 151 143 79 42 18 24 18 16 12 15 20 18 17 15 13 16 17 20 19 20
123 180 233 246 354 60 192 217 217 218 247 263 257 269 270 277 291 297 260 237 194 180 168 162 156 150 112 70 32 43 34 25 14 19 25 24 22 15 19 23 25 29 27 29
184 249 222 275 271 261 264 246 217 226 244 256 275 272 276 288 300 299 288 216 198 182 178 172 164 150 147 139 99 67 49 36 21 29 30 28 24 23 29 31 33 34 34 35
119 237 174 260 219 233 254 255 246 243 247 258 264 271 283 296 303 272 244 193 196 190 180 169 167 160 145 142 113 83 59 47 32 41 32 29 30 34 36 35 37 38 38 36
159 151 179 252 198 246 264 249 221 245 249 248 260 274 299 287 275 273 223 196 194 188 176 171 163 154 147 136 119 97 80 70 53 49 38 33 36 39 39 38 40 39 37 39
156 177 207 252 171 230 253 178 223 236 256 255 257 273 288 294 307 275 228 191 185 179 171 165 160 153 149 136 116 108 98 87 71 61 44 33 41 43 43 43 42 41 40 41
201 196 204 217 220 282 281 230 218 217 273 268 259 266 294 256 241 225 199 188 175 167 159 150 151 154 148 138 125 116 107 91 79 67 52 39 37 44 45 47 44 44 45 46
203 235 217 198 237 248 71 151 161 187 283 3 246 238 187 177 249 93 171 165 148 142 151 151 149 148 141 135 125 116 110 98 80 69 62 52 49 50 51 52 49 48 50 51
173 196 218 219 237 259 254 160 167 218 327 150 202 192 180 199 318 132 157 156 155 152 149 148 146 146 144 137 129 116 109 101 92 82 74 65 59 59 56 58 55 52 53 52
181 186 199 218 231 252 167 153 214 241 151 185 199 192 190 121 133 148 153 154 155 151 150 155 149 145 144 147 142 133 124 119 106 95 85 76 67 65 64 61 58 55 54 53
224 217 210 216 216 125 179 204 212 221 208 197 200 189 177 162 173 171 171 167 159 157 159 161 154 146 148 152 153 146 149 144 130 112 90 76 71 66 62 60 58 57 54 52
223 223 235 231 230 239 228 238 229 226 232 207 198 187 180 182 176 176 175 169 165 164 165 163 156 155 152 158 160 152 149 145 132 117 104 94 81 74 67 62 56 52 47 49
235 180 232 249 266 263 258 243 247 234 227 204 187 193 190 182 180 176 176 174 171 168 168 170 167 165 163 164 161 158 156 153 143 134 122 111 95 86 77 68 59 60 54 51
197 220 224 246 248 245 277 169 234 227 222 218 196 194 197 190 181 178 178 177 174 172 171 172 173 168 168 165 163 166 167 166 156 144 135 124 107 95 88 87 78 66 63 57
Height
803 801 796 795 803 803 805 806 803 794 796 807 797 793 788 811 814 818 821 825 828 832 837 839 840 839 837 836 833 831 829 826 821 818 814 810 807 803 800 797 794 791 788 785
804 798 794 803 804 808 809 808 802 799 798 806 793 790 786 807 807 813 818 823 827 831 834 838 838 838 837 835 833 831 828 825 822 819 815 811 806 802 797 794 791 788 785 782
798 792 803 805 806 808 805 803 800 807 797 793 796 785 775 802 811 816 821 823 829 831 833 834 835 835 834 833 831 829 827 825 822 818 813 808 804 798 794 791 787 784 782 779
796 792 801 804 802 803 799 796 801 802 805 797 798 791 775 787 800 811 813 820 823 830 834 835 836 836 835 833 832 830 826 824 820 817 813 810 805 799 795 790 785 781 778 774
791 800 804 804 798 799 797 800 801 801 801 800 794 805 769 788 790 789 800 810 819 828 833 835 836 836 835 834 831 828 826 823 820 817 813 809 804 800 794 789 784 779 774 770
789 793 796 792 798 798 800 802 802 803 801 802 780 790 772 775 783 788 792 805 818 827 831 834 835 835 832 832 831 828 826 823 819 816 812 808 804 798 792 787 782 777 772 766
791 793 790 793 800 804 801 801 798 796 798 791 793 795 777 772 787 794 796 805 818 827 830 832 833 833 834 832 830 828 826 823 819 816 811 807 803 798 792 787 781 775 769 763
787 793 787 786 789 791 799 796 795 801 787 781 797 791 769 786 794 801 805 807 819 825 830 832 834 834 834 832 831 829 827 823 819 815 811 807 803 798 793 787 781 776 769 763
778 784 786 789 790 791 802 803 792 797 790 800 782 769 763 790 793 799 805 812 816 822 827 831 834 835 835 833 832 830 826 823 819 815 811 807 803 798 793 788 783 776 770 763
774 787 787 795 792 796 794 790 804 800 810 799 775 773 775 789 785 790 798 802 808 820 827 831 834 836 836 834 832 830 827 823 819 815 811 807 803 799 794 789 783 776 769 763
771 774 793 792 789 785 797 795 795 793 791 794 791 782 782 796 787 788 789 794 804 815 824 832 836 836 837 835 832 830 826 823 819 816 812 808 805 800 795 789 784 779 772 764
775 776 782 782 789 789 784 781 784 795 791 786 788 781 778 785 791 790 785 791 801 814 823 830 835 837 837 834 832 831 827 824 821 817 813 810 807 802 798 793 787 781 774 767
776 776 782 788 793 789 787 783 786 788 792 789 792 779 779 788 789 786 787 790 803 814 821 827 833 835 835 834 834 831 828 825 822 819 815 812 808 805 802 797 791 784 777 771
777 775 779 771 772 774 788 786 787 789 792 782 774 782 769 772 769 770 778 791 801 810 819 824 829 832 833 834 834 831 829 826 824 820 817 814 811 809 805 801 795 789 784 778
778 781 787 778 776 777 778 778 784 787 778 787 776 772 768 766 768 771 776 786 801 810 818 822 826 830 832 833 833 831 830 827 826 822 819 816 814 812 808 804 799 794 790 784
784 784 799 800 783 785 787 780 778 782 781 782 778 763 765 763 772 775 780 788 799 809 815 821 825 827 829 831 832 831 830 829 827 823 821 819 817 814 810 807 803 799 795 790
782 796 796 782 782 786 785 776 780 771 768 770 768 755 753 763 768 775 780 788 796 804 812 817 821 825 829 831 830 830 831 830 829 826 824 822 819 816 813 811 808 804 800 796
786 789 781 782 790 789 762 767 766 768 762 759 757 757 756 760 777 787 785 787 795 803 810 816 820 825 829 830 830 830 831 831 830 828 828 826 822 819 817 815 812 810 806 802
778 776 779 781 773 761 757 755 766 766 755 751 750 750 763 784 785 785 787 789 796 804 811 817 821 825 828 830 830 831 832 832 832 830 830 828 826 823 821 818 817 815 812 808
782 775 773 774 775 764 749 757 763 764 759 746 751 756 769 781 764 763 786 792 801 809 813 817 821 825 828 830 831 832 834 834 834 833 832 831 830 827 825 823 821 820 817 814
778 782 770 764 772 754 743 758 763 767 750 751 756 758 768 772 769 784 788 796 804 810 814 818 821 825 828 829 831 833 835 835 835 835 834 833 833 832 830 827 825 824 821 819
755 763 768 766 773 759 739 759 757 743 750 754 758 763 773 777 787 789 793 799 804 808 814 818 821 825 827 830 832 834 836 837 837 837 837 837 837 836 834 831 829 828 825 823
748 742 742 744 738 741 743 738 744 747 746 754 755 761 771 781 786 790 794 798 801 807 813 818 821 824 827 830 832 834 836 837 838 839 838 839 839 839 837 835 833 831 829 827
741 739 743 743 736 737 742 741 745 748 749 752 754 759 767 775 782 787 791 793 798 804 811 816 820 824 826 830 833 834 836 837 839 839 840 841 842 841 839 837 836 833 832 830
733 737 737 733 737 736 740 739 739 744 750 752 755 758 763 770 777 782 786 790 795 801 808 813 816 821 826 829 832 834 836 838 840 840 841 842 842 843 842 840 839 838 838 836
734 735 733 728 728 730 730 742 745 744 746 750 753 758 761 765 771 777 781 786 792 798 804 809 814 818 824 827 830 834 836 839 840 841 841 842 842 843 843 842 843 842 842 841